Regional Weather Roundup
Issued by NWS State College, PA

Home | Current Version | Previous Version | Text Only | Print | Product List | Glossary On
Versions: 1 2 3 4 5 6 7 8 9 10 11 12 13 14 15 16 17 18 19 20 21 22 23 24 25 26 27 28 29 30 31 32 33 34 35 36 37 38 39 40 41 42 43 44 45 46 47 48 49 50
000
ASUS41 KCTP 221510
RWRCTP

REGIONAL WEATHER ROUNDUP
NATIONAL WEATHER SERVICE STATE COLLEGE PA
1000 AM EST WED JAN 22 2020

Note: "fair" indicates few or no clouds below 12,000 feet with no
significant weather and/or obstructions to visibility.

* = STATION THAT DOES NOT REPORT PRECIPITATION /E.G. RAIN...SNOW...ETC/
    THUNDER OR FOG.

PAZ002>004-007>009-013>016-020>023-029>032-221600-
WESTERN PENNSYLVANIA

CITY           SKY/WX    TMP DP  RH WIND       PRES   REMARKS
ERIE           FAIR      23  12  62 S12       30.41R WCI  12
MEADVILLE      FAIR      17  11  77 S9        30.37R WCI   6
FRANKLIN       FAIR      19  14  81 S8        30.39R WCI   9
NEW CASTLE     FAIR      20  16  84 CALM      30.43S
BEAVER COUNTY  FAIR      23  16  75 S7        30.41  WCI  14
BUTLER         FAIR      24  18  77 S6        30.43R
PITTSBURGH INT PTSUNNY   21  14  74 S5        30.42R WCI  15
PITTSBURGH     FAIR      21  15  78 S7        30.42S WCI  12
INDIANA*       SUNNY     23  16  74 S5        30.44F
LATROBE        NOT AVBL
WASHINGTON CO* FAIR      23  18  81 S5        30.45F
$$

PAZ004>006-010>012-017>019-024>028-033>037-041-042-045-046-049>053-221600-
CENTRAL PENNSYLVANIA

CITY           SKY/WX    TMP DP  RH WIND       PRES   REMARKS
BRADFORD       FAIR      17  12  80 SW5       30.33R WCI  10
ST MARYS       FAIR      18  12  79 CALM      30.39
DUBOIS         FAIR      16  10  77 S5        30.37R WCI   9
CLEARFIELD     FAIR      15  12  88 CALM      30.41F
JOHNSTOWN      FAIR      18  11  74 SW6       30.34F WCI  10
SOMERSET       FAIR      18  12  79 CALM      30.37R
ALTOONA        FAIR      20  12  71 S3        30.42S
STATE COLLEGE  SUNNY     21  12  68 S3        30.43S
REEDSVILLE     FAIR      19  14  79 CALM      30.47
WELLSBORO      FAIR      18  12  79 S9        30.35S WCI   6
WILLIAMSPORT   FAIR      21  13  71 CALM      30.49S
SELINSGROVE    FAIR      22  17  81 CALM      30.51R
FT INDIANTOWN  FAIR      27  13  55 S3        30.48F
CAPITAL CITY   FAIR      29  14  53 W7        30.50S
HARRISBURG     FAIR      28  14  55 W6        30.50S
YORK           FAIR      27  14  58 CALM      30.48F
$$

PAZ038>040-043-044-047-048-054-055-060>062-067>071-221600-
EASTERN PENNSYLVANIA

CITY           SKY/WX    TMP DP  RH WIND       PRES   REMARKS
TOWANDA        SUNNY     19  12  73 CALM      30.46S
SCRANTON       FAIR      22  14  71 VRB3      30.45S
MOUNT POCONO   FAIR      20  12  71 NW5       30.36S WCI  13
HAZLETON       FAIR      23  12  63 W6        30.43S
LEHIGHTON      NOT AVBL
ALLENTOWN      FAIR      27  14  58 W3        30.49R
QN CITY/ALNTWN FAIR      28  18  64 W3        30.51R
QUAKERTOWN*    SUNNY     27  16  63 W5        30.49R
PERKASIE*      FAIR      27  16  63 CALM      30.48S
DOYLESTOWN     FAIR      31  16  54 NW5       30.48S
READING        FAIR      28  17  63 S5        30.49S
LANCASTER      FAIR      27  15  61 CALM      30.49S
COATESVILLE    FAIR      27  16  63 CALM      30.48F
WEST CHESTER   FAIR      30  18  59 CALM      30.49F
POTTSTOWN      FAIR      25  16  68 NW5       30.51S
BLUE BELL      FAIR      28  17  63 W6        30.50S
NORTH PHILA    FAIR      32  16  51 NW5       30.53R
PHILADELPHIA   FAIR      30  14  51 CALM      30.52S
$$



USA.gov is the U.S. government's official web portal to all federal, state and local government web resources and services.